Salinas, CA

2:57 PM PST on December 13, 2017 (GMT -0800)
Salinas Municipal

Weather History for KSNS - May, 2013

Change the Weather History Date:

Sunday, May 5, 2013

  Actual Average Record
Temperature  
Mean Temperature 61 °F 58 °F  
Max Temperature 70 °F 68 °F 93 °F (1987)
Min Temperature 51 °F 49 °F 39 °F (1999)
Degree Days  
Heating Degree Days 4 7  
Month to date heating degree days 14 35  
Since 1 July heating degree days 2262 2424  
Cooling Degree Days 0 0  
Month to date cooling degree days 9 0  
Year to date cooling degree days 10 7  
Growing Degree Days 8 (Base 50)    
Moisture  
Dew Point 47 °F    
Average Humidity 64    
Maximum Humidity 83    
Minimum Humidity 45    
Precipitation  
Precipitation 0.00 in 0.01 in 0.32 in (1998)
Month to date precipitation 0.00 0.08  
Year to date precipitation 2.28 8.36  
Since 1 July precipitation 8.92  
Sea Level Pressure  
Sea Level Pressure 29.74 in    
Wind  
Wind Speed 21 mph (ESE)    
Max Wind Speed 37 mph    
Max Gust Speed 45 mph    
Visibility 9 miles    
Events      
T = Trace of Precipitation, MM = Missing Value Source: NWS Daily Summary

Daily Weather History Graph

Daily Weather History Graph

Search for Another Location

Airport or City:

Trip Planner

Search our weather history database for the weather conditions in past years. The results will help you decide how hot, cold, wet, or windy it might be!

Date:

Astronomy

May. 05, 2013 Rise Set
Actual Time 6:08 AM PDT 7:58 PM PDT
Civil Twilight 5:40 AM PDT 8:26 PM PDT
Nautical Twilight 5:06 AM PDT 9:00 PM PDT
Astronomical Twilight 4:29 AM PDT 9:37 PM PDT
Moon 3:34 AM PDT (5/5) 4:09 PM PDT (5/5)
Length of Visible Light 14h 46m
Length of Day
13h 50m
Waning Crescent, 17% of the Moon is Illuminated
May 5
Waning Crescent
May 9
New
May 17
First Quarter
May 24
Full
May 31
Last Quarter

Hourly Weather History & Observations

Time (PDT) Temp. Dew Point Humidity Pressure Visibility Wind Dir Wind Speed Gust Speed Precip Events Conditions
12:53 AM 51.1 °F 46.9 °F 86% 29.70 in 8.0 mi North 6.9 mph - N/A   Clear
1:53 AM 52.0 °F 46.9 °F 83% 29.70 in 8.0 mi Calm Calm - N/A   Clear
2:53 AM 51.1 °F 46.0 °F 83% 29.69 in 8.0 mi NW 3.5 mph - N/A   Clear
3:53 AM 54.0 °F 46.9 °F 77% 29.69 in 10.0 mi SSE 8.1 mph - N/A   Clear
4:53 AM 55.0 °F 46.9 °F 74% 29.68 in 10.0 mi SE 9.2 mph - N/A   Clear
5:53 AM 55.0 °F 46.9 °F 74% 29.69 in 10.0 mi SE 10.4 mph - N/A   Clear
6:53 AM 55.9 °F 46.0 °F 69% 29.69 in 10.0 mi ESE 18.4 mph - N/A   Clear
7:53 AM 59.0 °F 46.0 °F 62% 29.69 in 6.0 mi ESE 24.2 mph 40.3 mph N/A   Haze
8:53 AM 61.0 °F 46.0 °F 58% 29.70 in 6.0 mi ESE 33.4 mph 39.1 mph N/A   Haze
9:53 AM 64.0 °F 46.0 °F 52% 29.70 in 6.0 mi ESE 31.1 mph 42.6 mph N/A   Haze
11:53 AM 66.9 °F 45.0 °F 45% 29.72 in 9.0 mi ESE 34.5 mph 42.6 mph N/A   Clear
12:53 PM 66.9 °F 46.0 °F 47% 29.73 in 10.0 mi East 28.8 mph 38.0 mph N/A   Mostly Cloudy
1:53 PM 66.9 °F 46.9 °F 49% 29.74 in 10.0 mi ESE 32.2 mph 36.8 mph N/A   Overcast
2:53 PM 66.9 °F 46.9 °F 49% 29.75 in 10.0 mi ESE 27.6 mph 35.7 mph N/A   Mostly Cloudy
3:53 PM 66.9 °F 48.0 °F 51% 29.75 in 10.0 mi East 28.8 mph 35.7 mph N/A   Overcast
4:53 PM 66.0 °F 48.0 °F 52% 29.76 in 10.0 mi East 25.3 mph 31.1 mph N/A   Overcast
5:53 PM 64.9 °F 48.9 °F 56% 29.76 in 10.0 mi ESE 26.5 mph 34.5 mph N/A   Overcast
6:53 PM 63.0 °F 48.0 °F 58% 29.77 in 10.0 mi ESE 21.9 mph 29.9 mph N/A   Mostly Cloudy
7:53 PM 62.1 °F 48.0 °F 60% 29.79 in 10.0 mi ESE 21.9 mph 29.9 mph N/A   Overcast
8:53 PM 60.1 °F 48.0 °F 64% 29.80 in 10.0 mi ESE 18.4 mph 25.3 mph N/A   Clear
9:53 PM 59.0 °F 48.0 °F 67% 29.81 in 10.0 mi ESE 20.7 mph 28.8 mph N/A   Clear
10:53 PM 57.9 °F 48.0 °F 70% 29.83 in 10.0 mi ESE 13.8 mph - N/A   Clear
11:53 PM 57.0 °F 46.9 °F 69% 29.83 in 10.0 mi ESE 9.2 mph - N/A   Clear